Location: *
(32.8140°S, 174.6161°E)
Time: 01:13:01
(UTC+00:00)

NOSS 3-2 (A) - Pass Details

Date: 10 December 2019
Orbit: 814 x 1394 km, 63.4° (Epoch: 07 January)

Event Time Altitude Azimuth Distance (km) Brightness Sun altitude
Rises 15:52:25 0° 208° (SSW) 3,727 6.7 -13.8°
Reaches altitude 10° 15:55:10 10° 206° (SSW) 2,692 6.0 -13.3°
Maximum altitude 16:01:20 70° 122° (ESE) 929 3.6 -12.3°
Drops below altitude 10° 16:06:51 10° 38° (NE) 2,426 5.6 -11.4°
Sets 16:09:13 0° 35° (NE) 3,333 6.3 -11.0°
